Regional Weather Roundup
Issued by NWS

Home | Current Version | Previous Version | Text Only | Print | Product List | Glossary On
Versions: 1 2 3 4 5 6 7 8 9 10 11 12 13 14 15 16 17 18 19 20 21 22 23 24 25 26 27 28
000
ASUS46 KSEW 162310
RWRWA

WASHINGTON REGIONAL WEATHER ROUNDUP
NATIONAL WEATHER SERVICE SEATTLE WA
300 PM PST TUE JAN 16 2018

NOTE:"FAIR" INDICATES FEW OR NO CLOUDS BELOW 12,000 FEET WITH NO
SIGNIFICANT WEATHER AND/OR OBSTRUCTIONS TO VISIBILITY.

WAZ507-509-555>559-170000-
SEATTLE, TACOMA, EVERETT, AND VICINITY

CITY           SKY/WX    TMP DP  RH WIND       PRES   REMARKS
EVERETT        PTSUNNY   50  42  74 SE10      30.23S
BOEING FIELD   PTSUNNY   55  40  56 S12       30.24R
RENTON         MOSUNNY   56  38  50 S12       30.24R
SEATAC AIRPORT PTSUNNY   54  38  54 S12       30.23S
JBLM-MCCHORD   MOSUNNY   56  47  73 SW9       30.24R
PUYALLUP       FAIR      55  39  54 S7        30.24R
BREMERTON      LGT RAIN  49  45  86 SW6       30.23R
JBLM-FT LEWIS  MOSUNNY   54  47  79 S8        30.23R
TACOMA NARROWS MOSUNNY   53  40  61 S14G23    30.24R
$$

WAZ001-503-506-510-514-515-170000-
NORTH INTERIOR

CITY           SKY/WX    TMP DP  RH WIND       PRES   REMARKS
BELLINGHAM     PTSUNNY   52  41  66 S17G25    30.20R
FRIDAY HARBOR  MOSUNNY   52  42  69 CALM      30.20R
EASTSOUND      MOSUNNY   52  45  76 S6G13     30.20R
PORT ANGELES   PTSUNNY   48  42  80 E3        30.20R
EDIZ HOOK      FAIR      48  43  84 W5        30.20R
PORT TOWNSEND  FAIR      54  43  66 VRB6      30.20R
NAS WHIDBEY    PTSUNNY   55  42  61 SE15      30.24R
ARLINGTON      LGT RAIN  51  44  77 S10       30.24R
BURLINGTON     PTSUNNY   54  41  62 SE14      30.22R
$$

WAZ020-022-039-040-504-511-512-170000-
SOUTHWEST INTERIOR

CITY           SKY/WX    TMP DP  RH WIND       PRES   REMARKS
SHELTON        LGT RAIN  52  44  74 SW6       30.21R
OLYMPIA        CLOUDY    53  43  68 S12       30.23R
CHEHALIS       FAIR      54  46  76 S10G16    30.25R
KELSO          MOSUNNY   55  48  77 S7        30.26S
VANCOUVER      PTSUNNY   54  44  69 E5        30.26R
SCAPPOOSE, OR  MOSUNNY   55  46  71 SE3       30.25S
PORTLAND, OR   PTSUNNY   53  44  71 E9        30.27R
$$

WAZ021-516-517-170000-
WASHINGTON COAST

CITY           SKY/WX    TMP DP  RH WIND       PRES   REMARKS
FORKS          CLOUDY    50  48  93 S10G17    30.16R
HOQUIAM        CLOUDY    52  46  80 S14       30.21R
ASTORIA, OR    SUNNY     55  44  66 S13       30.21S
$$

WAZ019-023-024-040-567>569-170000-
CASCADE MOUNTAINS AND COLUMBIA GORGE

CITY           SKY/WX    TMP DP  RH WIND       PRES   REMARKS
STAMPEDE PASS  MOSUNNY   36  34  92 CALM      30.20R
TROUTDALE, OR  PTSUNNY   50  43  77 E9        30.27S
HOOD RIVER, OR CLOUDY    45  41  87 CALM      30.30S
THE DALLES, OR PTSUNNY   47  40  76 E3        30.31R
$$

WAZ026-027-041>044-520-521-170000-
EAST SLOPES

CITY           SKY/WX    TMP DP  RH WIND       PRES   REMARKS
OMAK           CLOUDY    36  36 100 SW8       30.28R
WENATCHEE      CLOUDY    37  36  96 E5        30.28R
ELLENSBURG     CLOUDY    46  36  68 CALM      30.26R
YAKIMA         PTSUNNY   47  39  74 NW5       30.29R
SUNNYSIDE ARPT CLEAR     50  40  68 E5        30.28R
YAKIMA TC      MOCLDY    43  37  78 CALM      30.26R
$$

WAZ028-034-035-170000-
COLUMBIA BASIN

CITY           SKY/WX    TMP DP  RH WIND       PRES   REMARKS
EPHRATA        FOG       39  35  86 N6        30.27S VSB 3/4
MOSES LAKE     PTSUNNY   44  40  85 CALM      30.28S
PASCO          SUNNY     55  40  56 SW7       30.30R
RICHLAND ARPT  CLEAR     54  42  64 S9        30.29R
HERMISTON, OR  SUNNY     50  42  74 CALM      30.29R
$$

WAZ036>038-170000-
NORTHEAST WASHINGTON

CITY           SKY/WX    TMP DP  RH WIND       PRES   REMARKS
SPOKANE GEIGER PTSUNNY   38  38 100 W3        30.27R
SPOKANE FELTS  CLOUDY    40  37  89 CALM      30.29R
FAIRCHILD AFB  FOG       37  37 100 CALM      30.26S VSB 1
COEURDALENE,ID CLOUDY    36  34  92 CALM      30.29R
DEER PARK      CLOUDY    35  34  96 N3        30.29R
$$

WAZ029>033-170000-
SOUTHEAST WASHINGTON

CITY           SKY/WX    TMP DP  RH WIND       PRES   REMARKS
PULLMAN        PTSUNNY   42  38  85 E9        30.30R
LEWISTON, ID   PTSUNNY   47  42  83 CALM      30.31R
WALLA WALLA    PTSUNNY   55  43  63 W3        30.28R
PENDLETON, OR  MOSUNNY   49  42  77 W6        30.28R
$$




USA.gov is the U.S. government's official web portal to all federal, state and local government web resources and services.